Home > Weather > Post Falls > Past weeks

Flag for U.S.A. Weather for the Past 2 Weeks in Post Falls, Idaho, U.S.A.

Now
41 °F

Sunny.


Feels Like: 33 °F
Forecast: 31 / 41 °F
Wind: 14 mph from Southwest

Location: Coeur d'Alene Weather Reporting System

Current Time: Feb 6, 2016 at 3:36:53 PM

Latest Report: Feb 6, 2016 at 2:35 PM


Visibility: 10 mi

Pressure: 30.33 "Hg (27.95 "Hg at 664m altitude)

Humidity: 66%

Dew point: 30 °F

Location of Post FallsLocation

Historic Weather in Post Falls — Graph

°F

Post Falls Temperature Yesterday

Maximum temperature yesterday: 46 °F (at 2:35 PM)
Minimum temperature yesterday: 32 °F (at 1:35 AM)
Average temperature yesterday: 39 °F

High & Low Weather Summary for the Past Weeks

 TemperatureHumidityPressure
High46 °F (Feb 5, 2:35 PM)100% (Jan 23, 2:15 AM)30.41 "Hg (Jan 23, 2:15 AM)
Low18 °F (Feb 3, 5:15 AM)65% (Feb 6, 4:35 AM)29.56 "Hg (Jan 29, 1:15 PM)
Average34 °F86%30.06 "Hg
* Reported Jan 22 2:15 PM — Feb 6 2:15 PM, Post Falls, Weather by CustomWeather, © 2016

Note: Actual official high and low records may vary slightly from our data, if they occured in-between our weather recording intervals... More about our weather records

Advertising

Post Falls Weather History for the Previous 24 Hours

 ConditionsComfort  
Time TempWeatherWind HumidityBarometerVisibility
2:15 PM
Sat, Feb 6
41 °FSunny.14 mph66%30.33 "Hg10 mi
1:55 PM41 °FPassing clouds.12 mph70%30.32 "Hg10 mi
12:55 PM41 °FPartly sunny.16 mph70%30.33 "Hg10 mi
12:35 PM41 °FPartly sunny.14 mph66%30.33 "Hg10 mi
12:15 PM41 °FPartly sunny.14 mph70%30.33 "Hg10 mi
11:55 AM39 °FScattered clouds.9 mph75%30.33 "Hg10 mi
11:35 AM39 °FPassing clouds.13 mph75%30.33 "Hg10 mi
11:15 AM39 °FSunny.14 mph70%30.33 "Hg10 mi
10:55 AM39 °FSunny.13 mph75%30.33 "Hg10 mi
10:35 AM37 °FSunny.10 mph75%30.32 "Hg10 mi
10:15 AM37 °FSunny.12 mph75%30.32 "Hg10 mi
9:55 AM37 °FSunny.16 mph75%30.31 "Hg10 mi
9:35 AM37 °FSunny.15 mph75%30.30 "Hg10 mi
9:15 AM37 °FSunny.14 mph75%30.29 "Hg10 mi
8:55 AM36 °FSunny.15 mph81%30.28 "Hg10 mi
8:35 AM36 °FSunny.14 mph75%30.28 "Hg10 mi
8:15 AM36 °FSunny.10 mph75%30.27 "Hg10 mi
7:55 AM36 °FSunny.18 mph75%30.25 "Hg10 mi
7:35 AM36 °FSunny.12 mph75%30.25 "Hg10 mi
7:15 AM36 °FSunny.10 mph75%30.24 "Hg10 mi
6:55 AM36 °FClear.12 mph75%30.23 "Hg10 mi
6:35 AM37 °FClear.15 mph70%30.21 "Hg10 mi
6:15 AM37 °FClear.15 mph70%30.18 "Hg10 mi
5:55 AM37 °FClear.16 mph70%30.17 "Hg10 mi
5:35 AM37 °FClear.15 mph70%30.17 "Hg10 mi
5:15 AM37 °FClear.14 mph70%30.17 "Hg10 mi
4:55 AM39 °FClear.15 mph65%30.15 "Hg10 mi
4:35 AM39 °FClear.22 mph65%30.13 "Hg10 mi
4:15 AM39 °FClear.18 mph70%30.13 "Hg10 mi
3:55 AM37 °FClear.18 mph75%30.11 "Hg10 mi
3:35 AM37 °FClear.14 mph81%30.12 "Hg10 mi
3:15 AM37 °FClear.9 mph75%30.12 "Hg10 mi
2:55 AM39 °FClear.9 mph70%30.11 "Hg10 mi
2:35 AM39 °FClear.14 mph81%30.09 "Hg10 mi
2:15 AM43 °FPassing clouds.20 mph71%30.07 "Hg10 mi
1:55 AM43 °FOvercast.22 mph76%30.06 "Hg10 mi
1:35 AM45 °FPartly cloudy.22 mph71%30.07 "Hg10 mi
1:15 AM45 °FPartly cloudy.29 mph71%30.06 "Hg10 mi
12:55 AM45 °FMostly cloudy.16 mph71%30.05 "Hg10 mi
12:35 AM45 °FMostly cloudy.18 mph71%30.03 "Hg10 mi
12:15 AM43 °FMostly cloudy.12 mph76%30.06 "Hg10 mi
11:55 PM
Fri, Feb 5
43 °FMostly cloudy.25 mph76%30.06 "Hg10 mi
11:35 PM43 °FMostly cloudy.22 mph71%30.08 "Hg10 mi
11:15 PM43 °FPartly cloudy.12 mph71%30.09 "Hg10 mi
10:55 PM43 °FMostly cloudy.10 mph71%30.08 "Hg10 mi
10:35 PM43 °FOvercast.10 mph71%30.07 "Hg10 mi
10:15 PM43 °FOvercast.N/A71%30.08 "Hg10 mi
9:55 PM43 °FOvercast.8 mph71%30.08 "Hg10 mi
9:35 PM43 °FMostly cloudy.9 mph71%30.08 "Hg10 mi
9:15 PM41 °FPassing clouds.12 mph76%30.08 "Hg10 mi
8:55 PM43 °FPassing clouds.10 mph71%30.08 "Hg10 mi
8:15 PM43 °FClear.6 mph71%30.10 "Hg10 mi
7:55 PM43 °FClear.9 mph71%30.10 "Hg10 mi
7:35 PM37 °FClear.5 mph75%30.12 "Hg10 mi
6:55 PM41 °FClear.No wind76%30.11 "Hg10 mi
5:55 PM43 °FPassing clouds.No wind71%30.17 "Hg10 mi
5:35 PM43 °FPassing clouds.5 mph76%30.18 "Hg10 mi
4:35 PM45 °FScattered clouds.7 mph71%30.21 "Hg10 mi
4:15 PM45 °FPartly sunny.7 mph71%30.21 "Hg10 mi
3:55 PM45 °FOvercast.6 mph71%30.22 "Hg10 mi
3:35 PM45 °FOvercast.7 mph71%30.22 "Hg10 mi
3:15 PM45 °FOvercast.8 mph71%30.24 "Hg10 mi
Weather by CustomWeather, © 2016

See weather overviewHow to use our weather pages